TimeEDT,TemperatureF,Dew PointF,Humidity,Sea Level PressureIn,VisibilityMPH,Wind Direction,Wind SpeedMPH,Gust SpeedMPH,PrecipitationIn,Events,Conditions,WindDirDegrees,DateUTC
12:51 AM,36.0,28.9,76,29.88,10.0,WNW,8.1,-,N/A,,Partly Cloudy,300,2013-03-13 04:51:00
1:51 AM,36.0,28.9,76,29.89,10.0,WNW,10.4,-,N/A,,Clear,300,2013-03-13 05:51:00
2:51 AM,34.0,28.0,79,29.88,10.0,NW,5.8,-,N/A,,Partly Cloudy,320,2013-03-13 06:51:00
3:51 AM,35.1,28.9,78,29.87,10.0,WNW,9.2,-,N/A,,Mostly Cloudy,290,2013-03-13 07:51:00
4:51 AM,35.1,28.0,76,29.87,10.0,West,8.1,-,N/A,,Mostly Cloudy,280,2013-03-13 08:51:00
5:51 AM,33.1,27.0,78,29.87,10.0,West,10.4,-,N/A,,Partly Cloudy,280,2013-03-13 09:51:00
6:51 AM,32.0,26.1,79,29.87,10.0,West,9.2,-,N/A,,Partly Cloudy,280,2013-03-13 10:51:00
7:51 AM,32.0,27.0,82,29.86,10.0,West,6.9,-,N/A,,Partly Cloudy,280,2013-03-13 11:51:00
8:51 AM,37.0,28.0,70,29.86,10.0,WNW,8.1,-,N/A,,Mostly Cloudy,300,2013-03-13 12:51:00
9:51 AM,37.9,26.1,62,29.87,10.0,WNW,9.2,-,N/A,,Mostly Cloudy,300,2013-03-13 13:51:00
10:51 AM,39.9,26.1,58,29.87,10.0,WNW,10.4,25.3,N/A,,Mostly Cloudy,300,2013-03-13 14:51:00
11:51 AM,41.0,25.0,53,29.86,10.0,WNW,8.1,-,N/A,,Scattered Clouds,290,2013-03-13 15:51:00
12:51 PM,42.1,21.9,45,29.84,10.0,WNW,13.8,-,N/A,,Scattered Clouds,290,2013-03-13 16:51:00
1:51 PM,42.1,21.9,45,29.83,10.0,West,13.8,-,N/A,,Scattered Clouds,280,2013-03-13 17:51:00
2:51 PM,44.1,21.9,42,29.81,10.0,WNW,12.7,-,N/A,,Mostly Cloudy,300,2013-03-13 18:51:00
3:51 PM,43.0,19.0,38,29.80,10.0,West,10.4,-,N/A,,Mostly Cloudy,260,2013-03-13 19:51:00
4:51 PM,43.0,19.9,40,29.79,10.0,NW,9.2,-,N/A,,Mostly Cloudy,310,2013-03-13 20:51:00
5:51 PM,43.0,19.0,38,29.79,10.0,NW,9.2,-,N/A,,Mostly Cloudy,310,2013-03-13 21:51:00
6:51 PM,39.9,19.0,43,29.81,10.0,WNW,10.4,-,N/A,,Scattered Clouds,300,2013-03-13 22:51:00
7:51 PM,37.0,24.1,59,29.83,10.0,West,17.3,21.9,N/A,,Mostly Cloudy,280,2013-03-13 23:51:00
8:51 PM,34.0,25.0,70,29.85,10.0,West,10.4,-,N/A,,Mostly Cloudy,280,2013-03-14 00:51:00
9:51 PM,33.1,25.0,72,29.85,10.0,West,12.7,-,N/A,,Scattered Clouds,280,2013-03-14 01:51:00
10:51 PM,33.1,23.0,66,29.84,10.0,WNW,12.7,-,N/A,,Scattered Clouds,290,2013-03-14 02:51:00
11:51 PM,32.0,21.0,64,29.86,10.0,NW,11.5,-,N/A,,Mostly Cloudy,310,2013-03-14 03:51:00